Weather History for Ahmedabad, India

Change the Weather History Date:

Tuesday, March 19, 2013

  Actual Average Record
Temperature  
Mean Temperature 84 °F -  
Max Temperature 100 °F 97 °F 104 °F (2004)
Min Temperature 67 °F 71 °F 61 °F (2014)
Cooling Degree Days 18    
Growing Degree Days 34 (Base 50)    
Moisture  
Dew Point 56 °F    
Average Humidity 37    
Maximum Humidity 53    
Minimum Humidity 13    
Precipitation  
Precipitation 0.00 in 0.00 in - ()
Sea Level Pressure  
Sea Level Pressure 29.77 in    
Wind  
Wind Speed 2 mph ()    
Max Wind Speed 7 mph    
Max Gust Speed -    
Visibility 2.4 miles    
Events      
Averages and records for this station are not official NWS values.
T = Trace of Precipitation, MM = Missing Value Source: Averaged Metar Reports

Daily Weather History Graph

Daily Weather History Graph

Search for Another Location

Airport:

Trip Planner

Search our weather history database for the weather conditions in past years. The results will help you decide how hot, cold, wet, or windy it might be!

Date:

Astronomy

Mar. 19, 2013 Rise Set
Actual Time 6:44 AM IST 6:50 PM IST
Civil Twilight 6:22 AM IST 7:12 PM IST
Nautical Twilight 5:56 AM IST 7:38 PM IST
Astronomical Twilight 5:29 AM IST 8:05 PM IST
Moon 11:48 AM IST (3/19) 12:38 AM IST (3/19)
Length of Visible Light 12h 50m
Length of Day
12h 05m
Waxing Crescent, 46% of the Moon is Illuminated
Mar 19
Waxing Crescent
Mar 19
First Quarter
Mar 27
Full
Apr 3
Last Quarter
Apr 10
New

Hourly Weather History & Observations

Time (IST) Temp. Heat Index Dew Point Humidity Pressure Visibility Wind Dir Wind Speed Gust Speed Precip Events Conditions
12:10 AM 82.4 °F 82.5 °F 59.0 °F 45% 29.74 in 2.5 mi Variable 2.3 mph - N/A   Smoke
12:40 AM 80.6 °F 81.1 °F 59.0 °F 48% 29.74 in 2.5 mi Variable 2.3 mph - N/A   Smoke
1:10 AM 80.6 °F 81.1 °F 59.0 °F 48% 29.74 in 2.5 mi NE 3.5 mph - N/A   Smoke
1:40 AM 78.8 °F - 55.4 °F 44% 29.74 in 2.5 mi NE 2.3 mph - N/A   Smoke
2:10 AM 78.8 °F - 57.2 °F 47% 29.74 in 2.5 mi Variable 2.3 mph - N/A   Smoke
2:30 AM 75 °F - 51 °F 32% 29.76 in 2 mi Calm Calm - -  
2:40 AM 78.8 °F - 57.2 °F 47% 29.74 in 2.5 mi NNE 3.5 mph - N/A   Smoke
3:10 AM 77.0 °F - 55.4 °F 47% 29.74 in 2.5 mi Variable 2.3 mph - N/A   Smoke
3:40 AM 77.0 °F - 53.6 °F 44% 29.74 in 2.5 mi NNE 3.5 mph - N/A   Smoke
4:10 AM 75.2 °F - 53.6 °F 47% 29.74 in 2.5 mi NNE 3.5 mph - N/A   Smoke
4:40 AM 75.2 °F - 53.6 °F 47% 29.74 in 2.5 mi NE 3.5 mph - N/A   Smoke
5:10 AM 75.2 °F - 51.8 °F 44% 29.74 in 2.5 mi Variable 3.5 mph - N/A   Smoke
5:30 AM 70 °F - 54 °F 47% 29.78 in 2 mi Calm Calm - -  
5:40 AM 75.2 °F - 53.6 °F 47% 29.77 in 2.5 mi Variable 2.3 mph - N/A   Smoke
6:40 AM 75.2 °F - 57.2 °F 53% 29.77 in 1.2 mi Calm Calm - N/A   Mist
7:10 AM 77.0 °F - 57.2 °F 50% 29.80 in 1.0 mi Calm Calm - N/A   Mist
7:40 AM 77.0 °F - 57.2 °F 50% 29.80 in 1.0 mi Calm Calm - N/A   Mist
8:10 AM 78.8 °F - 57.2 °F 47% 29.80 in 1.0 mi Calm Calm - N/A   Mist
8:30 AM 79 °F - 57 °F 36% 29.85 in 1 mi NW 2.3 mph - -   Smoke
8:40 AM 80.6 °F 80.8 °F 57.2 °F 45% 29.83 in 1.0 mi WNW 3.5 mph - N/A   Mist
9:10 AM 82.4 °F 82.0 °F 57.2 °F 42% 29.83 in 1.0 mi WNW 3.5 mph - N/A   Mist
9:40 AM 82.4 °F 82.0 °F 57.2 °F 42% 29.83 in 1.2 mi NW 3.5 mph - N/A   Smoke
10:10 AM 84.2 °F 83.5 °F 57.2 °F 40% 29.83 in 1.6 mi NW 4.6 mph - N/A   Smoke
11:10 AM 84.2 °F 83.5 °F 57.2 °F 40% 29.83 in 2.2 mi Variable 3.5 mph - N/A   Smoke
11:30 AM 94 °F - 52 °F 15% 29.85 in 2 mi NE 2.3 mph - -  
11:40 AM 87.8 °F 85.7 °F 53.6 °F 31% 29.83 in 2.5 mi Calm Calm - N/A   Smoke
12:40 PM 91.4 °F - 51.8 °F 26% 29.80 in 3.7 mi East 3.5 mph - N/A   Unknown
1:10 PM 93.2 °F - 51.8 °F 24% 29.80 in 3.7 mi Calm Calm - N/A   Unknown
1:40 PM 93.2 °F - 51.8 °F 24% 29.77 in 3.7 mi East 3.5 mph - N/A   Unknown
2:10 PM 95.0 °F - 51.8 °F 23% 29.74 in 3.7 mi East 3.5 mph - N/A   Unknown
2:30 PM 100 °F - 54 °F 13% 29.79 in 2 mi Calm Calm - -  
2:40 PM 95.0 °F - 51.8 °F 23% 29.71 in 3.7 mi East 3.5 mph - N/A   Unknown
3:40 PM 98.6 °F 96.4 °F 53.6 °F 22% 29.71 in 3.7 mi East 3.5 mph - N/A   Unknown
4:10 PM 100.4 °F 98.4 °F 53.6 °F 21% 29.71 in 3.7 mi East 3.5 mph - N/A   Unknown
4:40 PM 100.4 °F 98.4 °F 53.6 °F 21% 29.71 in 3.7 mi Calm Calm - N/A   Unknown
5:10 PM 100.4 °F 98.4 °F 53.6 °F 21% 29.74 in 3.7 mi Calm Calm - N/A   Unknown
5:30 PM 99 °F - 58 °F 17% 29.73 in 2 mi West 3.5 mph - -   Clear
5:40 PM 98.6 °F 96.4 °F 53.6 °F 22% 29.74 in 3.7 mi Calm Calm - N/A   Unknown
6:10 PM 96.8 °F 95.1 °F 55.4 °F 25% 29.74 in 3.7 mi Calm Calm - N/A   Unknown
7:40 PM 91.4 °F 89.9 °F 57.2 °F 31% 29.74 in 2.5 mi Calm Calm - N/A   Smoke
8:10 PM 89.6 °F 88.9 °F 59.0 °F 36% 29.74 in 2.5 mi Calm Calm - N/A   Smoke
8:30 PM 83 °F - 59 °F 34% 29.77 in 2 mi Calm Calm - -  
8:40 PM 87.8 °F 87.1 °F 59.0 °F 38% 29.77 in 2.5 mi NE 4.6 mph - N/A   Smoke
9:10 PM 86.0 °F 86.1 °F 60.8 °F 43% 29.77 in 2.5 mi ENE 3.5 mph - N/A   Smoke
9:40 PM 82.4 °F 82.5 °F 59.0 °F 45% 29.80 in 2.5 mi ENE 3.5 mph - N/A   Smoke
10:10 PM 82.4 °F 82.5 °F 59.0 °F 45% 29.80 in 2.5 mi NE 3.5 mph - N/A   Smoke
10:40 PM 82.4 °F 82.5 °F 59.0 °F 45% 29.80 in 2.5 mi NE 6.9 mph - N/A   Smoke
11:10 PM 80.6 °F 80.8 °F 57.2 °F 45% 29.80 in 2.5 mi NE 4.6 mph - N/A   Smoke
11:30 PM 82 °F - 54 °F 27% 29.81 in 2 mi SW 4.6 mph - -  
11:40 PM 80.6 °F 80.5 °F 55.4 °F 42% 29.80 in 2.5 mi Variable 3.5 mph - N/A   Smoke